Location: Cactus School
(34.5700°N, 118.0931°W)
Time: 15:14:39
(UTC-07:00)

ISS - Visible Passes

Search period start: 21 April 2019 00:00
Search period end: 01 May 2019 00:00
Orbit: 408 x 410 km, 51.6° (Epoch: 22 April)

Date Brightness Start Highest point End Pass type
(mag) Time Alt. Az. Time Alt. Az. Time Alt. Az.
25 Apr -0.9 05:02:58 10° SE 05:03:52 11° SE 05:04:46 10° ESE visible
27 Apr -2.4 04:56:16 15° S 04:58:27 31° SE 05:01:27 10° ENE visible
28 Apr -1.4 04:07:41 16° SE 04:07:46 16° SE 04:09:50 10° E visible
29 Apr -3.9 04:51:45 31° SW 04:53:10 79° NW 04:56:29 10° NE visible
30 Apr -2.7 04:02:58 40° E 04:02:58 40° E 04:05:31 10° ENE visible
30 Apr -1.7 05:36:48 10° WNW 05:39:05 17° NNW 05:41:22 10° NNE visible
